Powrót do katalogu

SL-8 R/B

AktywnyPO
NORAD 8421·ROCKET BODY·🇷🇺 Russia

Wystrzelony Nov 4, 1975 z Plesetsk Cosmodrome

Loading…

Następne Przeloty (najbliższe 24 godziny)

TLE

ŚwieżeSource: Space-Track

Epoka: Sep 14, 2026, 04:36 UTC

1 08421U 75103B   26257.19197118  .00000079  00000-0  64252-4 0  9999
2 08421  82.9772 180.1354 0023820 141.9482  22.8058 13.77105019553369

Śledź SL-8 R/B w czasie rzeczywistym z AllMySat

Download on the App Store